Location: Aufkirchen
(47.9603°N, 11.3653°E)
Time: 16:57:21
(UTC+01:00)

Transit 2A - Pass Details

Date: 04 December 2020
Orbit: 599 x 960 km, 66.7° (Epoch: 26 January)

Event Time Altitude Azimuth Distance (km) Brightness Sun altitude
Rises 20:30:54 0° 305° (NW) 3,500 10.2 -40.6°
Enters shadow 20:35:25 - 336° (NNW) 2,519 9.0 -41.3°
Reaches altitude 10° 20:35:53 10° 341° (NNW) 2,462 - -41.4°
Maximum altitude 20:37:17 11° 355° (N) 2,373 - -41.6°
Drops below altitude 10° 20:38:39 10° 10° (N) 2,401 - -41.9°
Sets 20:43:16 0° 47° (NE) 3,219 - -42.6°
